Vorticity
nan nan nan nan nan nan nan nan nan nan nan nan nan nan nan nan nan nan nan nan nan nan nan nan nan nan nan nan nan nan nan nan nan nan nan nan nan nan nan nan nan nan nan nan nan nan nan nan nan nan nan nan nan nan
nan 11 10 10 10 10 11 10 14 17 12 12 11 14 14 12 12 13 11 10 12 10 7 11 17 13 11 6 8 10 8 6 8 8 11 11 12 12 12 14 13 12 14 3 7 12 14 12 6 9 14 12 9 nan
nan 10 10 9 9 10 12 12 11 11 12 12 11 10 12 12 14 14 11 10 12 11 14 17 16 19 19 12 6 3 9 4 7 10 9 11 11 11 11 5 7 10 12 12 5 15 12 17 18 18 7 8 12 nan
nan 10 10 11 10 10 11 10 9 9 9 10 10 10 10 11 14 15 14 11 10 11 12 8 5 10 16 26 19 9 -0 6 9 7 11 9 9 11 10 10 12 11 7 14 11 5 10 7 19 21 12 6 7 nan
nan 10 11 11 11 10 10 9 8 8 8 9 10 10 10 10 15 18 16 16 11 8 7 7 14 21 19 14 19 23 10 8 4 9 11 10 10 12 11 12 9 5 9 9 10 15 18 4 15 10 12 8 9 nan
nan 9 9 9 10 10 9 8 8 9 9 9 10 11 13 12 15 15 14 16 13 8 7 8 14 16 15 25 32 14 11 11 10 10 9 10 12 11 11 11 9 4 10 19 10 6 11 11 11 15 13 10 12 nan
nan 8 8 8 8 8 8 8 7 8 10 11 12 14 16 17 13 11 9 4 7 11 12 9 13 11 13 18 19 12 13 10 10 9 11 9 8 11 12 12 8 8 19 17 8 6 6 9 14 9 9 9 9 nan
nan 9 8 8 9 9 9 8 8 9 10 12 15 14 22 22 13 13 19 14 9 11 10 11 10 7 12 21 16 11 11 8 10 10 11 12 12 10 5 3 14 24 14 6 11 18 9 -0 8 11 11 8 7 nan
nan 10 9 9 9 10 10 10 11 12 11 12 22 27 25 17 17 19 16 13 13 12 9 10 9 9 11 13 9 12 12 10 11 11 12 11 11 9 9 12 10 15 25 18 13 8 5 13 4 6 7 9 7 nan
nan 9 9 9 10 11 12 12 12 13 15 31 31 21 11 15 15 7 4 8 11 9 11 10 11 10 11 10 11 14 10 11 10 13 10 10 8 6 13 22 14 11 11 10 15 9 6 9 10 10 9 8 7 nan
nan 9 9 9 10 11 13 12 12 24 32 21 10 8 16 16 4 6 9 11 10 11 11 9 11 12 13 13 9 12 12 12 10 13 11 10 8 8 15 19 10 9 9 10 8 8 12 10 9 9 9 8 5 nan
nan 9 9 10 11 13 12 11 19 21 15 15 13 12 12 10 10 10 12 11 11 12 12 12 11 11 13 14 10 7 12 12 13 12 11 10 8 8 10 11 11 11 9 10 8 10 11 11 13 13 11 11 13 nan
nan 10 10 11 12 14 14 13 18 19 17 16 11 9 11 10 10 11 9 14 12 11 7 8 11 12 10 12 16 10 13 13 11 10 11 9 8 5 10 9 9 11 7 7 7 20 20 22 16 10 15 14 17 nan
nan 9 10 14 19 16 13 13 16 22 19 11 8 10 12 12 14 9 13 15 10 11 9 14 13 12 12 10 10 11 13 12 12 11 12 11 8 9 12 11 6 8 16 21 20 9 8 16 14 12 13 13 11 nan
nan 10 23 25 16 7 9 18 27 18 10 9 12 11 8 10 11 10 17 22 18 14 13 15 16 12 10 9 9 15 13 12 10 13 12 14 17 14 15 21 17 11 11 10 13 9 13 13 10 9 6 9 9 nan
nan 29 26 3 3 11 21 32 24 10 11 12 7 4 10 12 12 12 13 11 14 22 20 12 13 13 11 13 10 14 12 10 13 11 10 10 12 12 11 17 15 18 21 17 15 8 3 10 15 13 12 10 12 nan
nan 15 -9 5 11 25 33 21 13 13 10 7 7 19 15 5 9 14 14 15 13 10 17 16 10 14 12 10 13 12 11 10 12 14 13 14 14 11 4 2 10 15 13 7 9 14 19 12 10 9 10 11 12 nan
nan -5 -4 3 23 31 19 10 7 11 17 15 4 8 10 14 15 16 14 15 16 14 14 13 12 9 13 12 14 16 16 12 8 10 11 8 16 23 17 6 12 12 4 8 13 10 11 12 14 9 7 13 8 nan
nan 1 5 15 19 17 13 13 11 9 8 8 11 15 12 11 14 14 13 13 15 16 16 12 12 11 13 12 10 14 16 18 17 14 13 12 10 8 9 16 16 11 8 7 13 18 8 9 11 12 14 14 11 nan
nan 21 18 25 18 9 12 10 12 12 10 10 12 10 10 11 11 11 12 12 15 12 14 15 13 13 11 12 13 12 11 10 11 12 13 14 10 11 10 10 12 10 12 12 10 11 12 9 9 13 14 10 12 nan
nan 14 22 27 14 9 9 11 14 11 10 13 12 10 9 6 9 10 9 13 13 12 11 12 10 11 12 11 13 13 11 13 12 12 11 11 13 12 12 9 9 12 13 13 11 9 10 10 10 13 11 10 12 nan
nan 14 22 12 10 15 9 11 10 12 14 11 11 11 9 10 9 8 10 13 13 11 10 10 10 11 8 8 11 12 17 17 13 10 13 13 11 14 19 17 13 12 10 11 11 11 11 11 10 13 14 13 15 nan
nan 15 11 9 11 12 13 12 12 11 12 14 11 10 12 11 9 11 13 10 12 10 13 15 13 10 9 7 6 10 16 19 14 11 14 15 13 13 14 13 12 12 11 12 12 11 10 10 13 14 14 15 16 nan
nan 8 13 14 13 8 15 14 11 12 11 10 12 12 10 13 11 10 9 11 11 10 9 11 12 10 11 14 11 9 11 14 15 14 11 12 14 13 10 9 10 10 12 12 11 11 12 10 11 11 12 13 12 nan
nan 17 16 15 15 11 13 12 10 14 14 15 18 12 8 7 13 13 7 6 9 10 8 8 10 12 13 12 12 12 12 12 13 14 16 14 13 13 12 10 7 8 12 12 10 13 13 10 9 11 14 11 10 nan
nan 12 6 10 14 18 15 11 13 11 13 17 17 15 12 9 11 11 9 9 9 7 8 11 13 13 13 12 13 15 12 11 11 14 16 12 13 12 11 11 10 9 14 12 10 12 10 12 11 12 13 11 14 nan
nan 12 13 15 11 9 13 12 8 11 15 13 12 16 14 10 11 10 10 9 10 11 11 11 13 15 14 12 15 14 11 9 11 19 15 10 11 11 12 12 12 13 12 10 12 11 10 12 13 14 13 12 11 nan
nan 12 6 7 14 14 9 12 17 14 12 15 15 14 14 12 10 11 13 9 9 12 15 15 13 14 11 12 15 13 11 9 11 16 17 12 9 8 11 13 9 17 15 8 12 9 10 11 11 11 12 14 12 nan
nan 13 13 12 8 12 14 11 13 13 13 20 18 15 13 11 11 10 12 18 17 11 10 14 14 12 11 13 14 14 12 9 7 8 16 15 11 11 11 12 12 11 13 17 12 9 11 14 15 9 11 14 11 nan
nan 11 7 12 14 15 14 14 12 13 16 17 16 14 14 11 9 9 8 13 16 16 13 13 14 13 10 12 14 14 13 11 11 10 11 12 12 12 12 12 13 13 11 10 14 14 11 14 14 11 12 14 12 nan
nan 15 15 11 13 17 14 11 9 9 8 8 13 13 12 11 10 9 11 11 12 12 11 12 15 15 11 13 13 14 17 10 8 11 16 15 13 12 11 13 13 12 11 14 15 12 11 12 12 11 11 11 12 nan
nan 9 12 19 17 12 12 11 10 9 8 9 11 12 12 12 14 10 8 13 13 11 10 12 16 14 13 14 14 19 17 10 9 8 11 13 11 10 12 13 11 11 12 15 14 12 13 14 11 11 11 11 12 nan
nan nan nan nan nan nan nan nan nan nan nan nan nan nan nan nan nan nan nan nan nan nan nan nan nan nan nan nan nan nan nan nan nan nan nan nan nan nan nan nan nan nan nan nan nan nan nan nan nan nan nan nan nan nan
CAPE
11 10 8 8 13 47 70 104 121 76 84 94 95 102 122 138 128 79 95 192 106 5 0 1 0 5 6 24 44 45 0 10 1 113 0 18 0 0 0 0 0 0 0 0 86 91 69 436 336 413 658 856 1193 1180
6 3 1 0 24 73 94 100 114 115 117 83 57 75 66 73 86 88 65 287 203 49 2 0 0 0 0 0 17 4 0 0 1 91 218 157 2 60 14 0 0 0 0 0 0 47 366 440 222 483 511 924 1001 1067
3 17 18 25 38 62 71 80 71 104 84 56 66 64 46 52 55 62 64 139 110 37 2 0 0 0 1 0 0 2 0 0 41 53 44 144 87 183 104 16 159 35 93 46 127 0 176 101 181 859 565 331 120 582
7 14 19 27 35 40 56 62 65 68 73 47 36 31 43 59 72 35 18 97 82 40 16 0 0 0 0 4 0 0 0 0 67 69 69 31 30 125 72 18 17 302 69 116 142 549 528 454 314 417 300 53 0 15
0 0 0 0 0 20 22 31 47 61 68 46 31 14 0 4 48 21 4 15 37 13 18 0 0 0 0 0 0 0 0 0 8 1 58 64 99 70 73 79 1 5 137 59 186 77 28 113 4 12 4 4 0 0
0 0 0 0 0 0 11 17 26 36 38 40 30 16 19 36 28 1 37 90 170 52 23 23 0 0 31 102 47 14 5 0 0 56 80 58 27 54 27 6 0 0 16 46 35 0 0 0 0 0 0 0 0 0
0 0 0 0 0 0 1 7 18 25 27 26 24 20 12 20 3 6 38 41 2 1 41 21 0 29 3 34 0 0 0 0 11 68 34 58 29 25 38 5 0 0 26 9 0 0 0 0 0 0 0 0 0 0
0 0 0 0 0 0 0 0 0 6 9 13 9 4 1 0 2 5 4 1 0 15 25 17 4 4 5 34 8 7 0 25 58 55 20 8 45 31 24 11 45 21 49 16 12 1 0 8 0 0 0 0 0 0
0 0 0 0 0 0 0 0 0 2 2 3 2 0 0 0 0 57 0 0 1 11 14 21 11 6 18 29 70 41 24 11 65 27 9 19 19 18 22 2 10 16 13 11 64 9 0 0 0 0 0 0 0 0
0 0 0 0 0 0 0 0 0 2 0 0 0 6 36 44 1 11 21 15 12 13 15 9 7 23 25 1 40 61 24 21 12 8 50 24 22 28 10 20 4 6 23 0 2 0 1 0 0 0 0 0 0 0
0 0 0 0 0 0 0 0 0 0 0 6 1 1 0 0 15 17 18 13 10 9 9 1 26 39 52 43 49 39 56 42 11 18 26 17 14 23 10 21 8 2 5 7 0 0 0 0 0 0 0 0 0 0
0 0 0 0 0 0 0 0 0 0 2 0 0 0 0 46 27 7 6 13 9 3 0 8 41 32 43 5 52 38 46 5 7 49 18 10 22 29 19 9 3 5 3 17 24 15 0 0 0 0 0 0 0 0
0 0 0 0 0 0 0 0 0 0 0 3 0 22 3 12 13 9 1 1 7 25 31 25 28 8 16 27 41 19 7 15 20 9 13 24 25 41 35 36 16 16 21 12 33 30 7 22 23 34 19 31 33 46
0 0 0 0 0 0 0 0 0 0 0 13 9 0 36 18 4 15 3 2 0 14 1 12 10 2 6 19 7 8 50 32 18 7 8 8 0 0 5 40 40 37 36 7 11 44 37 58 66 52 69 54 66 21
0 0 0 0 0 0 0 0 0 0 7 73 47 2 100 77 100 73 40 34 6 185 114 87 54 31 19 32 20 19 3 11 11 22 23 14 3 27 53 57 74 58 100 50 70 49 87 91 78 40 21 54 62 86
0 0 0 0 0 0 0 0 37 69 403 203 108 94 108 61 38 18 61 2 13 9 34 7 29 17 21 8 7 11 12 5 1 10 20 19 14 34 38 36 28 106 169 53 39 116 119 35 129 89 63 61 17 99
0 0 0 0 0 0 0 1 463 247 44 15 67 143 66 56 67 98 62 18 38 0 0 6 20 24 4 1 4 12 12 1 8 20 7 14 29 26 27 20 47 69 6 0 1 6 13 0 8 7 0 8 1 11
1 0 0 0 0 0 124 30 148 64 34 57 45 145 149 103 165 90 48 32 8 7 0 12 29 13 17 16 18 21 26 5 18 46 25 42 64 62 53 45 88 62 0 9 14 7 0 0 0 0 2 18 0 0
0 0 0 0 0 2 14 15 106 61 44 71 105 138 144 148 117 81 81 50 9 0 0 21 21 34 41 45 105 79 35 39 36 41 39 45 29 35 39 95 165 185 99 21 5 0 0 0 0 0 0 0 0 0
0 0 0 0 0 2 22 101 298 68 39 36 75 169 105 89 90 11 2 0 0 0 8 28 42 65 69 60 62 68 51 82 71 75 26 20 16 43 77 3 10 33 1 1 0 0 0 0 0 0 0 0 0 0
0 0 0 0 1 0 0 3 12 12 26 248 271 99 163 6 0 0 0 0 0 17 40 109 24 10 5 0 0 12 81 164 179 143 105 42 39 15 11 7 0 0 0 0 0 0 0 0 0 0 0 0 0 0
0 0 0 98 92 43 87 175 72 208 214 297 285 224 301 164 25 34 40 13 28 119 137 175 99 35 0 0 0 0 0 126 233 41 4 18 16 7 36 36 2 0 0 0 0 0 0 0 0 0 0 0 0 0
0 0 78 170 89 0 131 364 262 299 247 227 277 168 343 287 281 68 58 67 77 151 107 101 192 104 28 18 0 0 0 0 0 0 0 2 0 0 0 0 0 0 0 0 0 0 0 0 0 0 0 0 0 0
0 0 38 288 376 85 578 531 461 481 581 330 326 181 288 437 157 46 54 51 48 21 29 41 9 1 8 24 0 0 0 0 0 0 0 0 0 0 0 0 0 0 0 0 0 0 0 0 0 0 0 0 0 0
36 32 191 28 585 494 386 224 153 228 171 287 292 300 6 2 30 20 16 35 9 37 43 43 37 35 29 16 0 3 1 0 0 0 5 0 0 0 0 0 0 0 0 0 0 0 0 0 0 0 0 0 0 0
2 461 41 314 396 313 233 170 363 228 259 242 325 182 100 30 12 12 20 26 46 53 50 51 36 51 35 2 1 4 0 0 0 0 9 0 0 0 0 0 0 0 0 0 0 0 0 0 0 0 0 0 0 0
37 0 11 0 2 22 375 380 519 248 96 173 367 259 183 2 7 4 19 10 13 36 52 60 47 16 0 0 0 0 0 0 0 0 1 0 0 0 0 0 0 0 0 0 0 0 0 0 0 0 0 0 0 0
112 0 10 225 401 468 174 121 15 1 0 23 223 6 10 3 0 0 0 5 36 61 83 87 19 0 0 0 0 0 0 0 0 0 0 0 0 0 0 0 0 0 0 0 0 0 0 0 0 0 0 0 0 0
532 571 242 202 85 36 56 20 0 0 0 0 80 2 0 0 0 9 9 53 105 91 3 0 0 0 0 0 0 0 0 0 0 0 0 0 0 0 0 0 0 0 0 0 0 0 0 0 1 0 1 0 0 0
458 359 258 165 76 28 5 1 0 0 0 0 0 0 0 2 4 5 4 0 0 0 0 0 0 0 0 0 0 0 0 0 0 0 0 0 0 0 0 0 0 0 0 0 2 0 0 0 0 0 0 0 0 0
66 43 67 231 75 24 35 0 0 0 0 0 0 0 0 5 14 3 1 3 0 0 0 0 0 0 0 0 0 0 0 0 0 0 0 0 0 0 0 0 0 0 0 0 0 0 0 0 0 0 1 1 4 1
96 47 50 37 314 213 235 147 33 37 0 8 13 8 7 55 46 51 0 0 0 0 0 0 0 0 0 0 0 0 0 0 0 0 0 0 0 0 0 0 0 0 0 1 0 0 0 0 2 3 3 4 5 3
3 18 12 2 211 461 454 452 345 234 41 9 101 72 14 6 1 8 12 0 0 0 0 0 0 0 0 0 0 0 0 0 0 0 0 0 0 0 0 0 0 0 0 0 2 2 1 2 2 4 4 6 3 4